Tracking 19489 objects as of 22-Jan-2019
HD Live streaming from Space Station
objects crossing your sky now

GLOBALSTAR M045

Track GLOBALSTAR M045 now!
10-day predictions
GLOBALSTAR M045 is classified as:


NORAD ID: 25676
Int'l Code: 1999-019A
Perigee: 1,568.4 km
Apogee: 1,570.6 km
Inclination: 52.0 °
Period: 117.4 minutes
Semi major axis: 7940 km
RCS: 2.6523 m2 (large)
Launch date: April 15, 1999
Source: Globalstar (GLOB)
Launch site: TYURATAM MISSILE AND SPACE COMPLEX (TTMTR)
aabbcc
Your satellite tracking list
Your tracking list is empty




NASA's NSSDC Master Catalog

Two Line Element Set (TLE):
1 25676U 99019A   19021.85454087 -.00000117  00000-0 -20664-3 0  9990
2 25676  51.9970 129.2438 0001411 118.7098  34.9277 12.26959934906590
Source of the keplerian elements: AFSPC